www.pogodaiklimat.ru

Погода и климат >> Архив погоды >> Россия >> город Севастополь >> Севастополь


АРХИВ ПОГОДЫ в Севастополе

Время (UTC), дата Ветер
(напр.,м/с)
 
Видим.   Явления Облачность Т
(С)
Тd
(С)
f
(%)
Тe
(С)
Тes
(С)
Комфортность P
(гПа)
Po
(гПа)
Тmin
(С)
Tmax
(С)
R
(мм)
R24
(мм)
S
(см)
18 22.04 Ю 3 20 км 7 баллов +8.1 +4.7 79 +5 +5 прохладно 1018.0 1017.3 +10.5
21 22.04 В 1 20 км 7 баллов +6.7 +4.5 86 +6 +6 по сезону 1016.7 1016.0
00 23.04 В 1 20 км 7 баллов +5.5 +3.7 88 +4 +4 по сезону 1014.0 1013.3
03 23.04 В 2 20 км 9 баллов +5.4 +2.7 83 +3 +3 прохладно 1011.4 1010.7 +5.2
06 23.04 В 6 10 км слабый дождь 10 баллов +4.3 +2.6 89 -1 -1 очень
холодно
1010.0 1009.3 +4.1 2
09 23.04 С 5 4000 м слабый дождь 10 баллов +3.4 +2.4 93 -2 -2 очень
холодно
1010.0 1009.3
12 23.04 СЗ 2 10 км слабый дождь 10 баллов +4.4 +3.4 93 +2 +2 очень
холодно
1010.0 1009.3
15 23.04 З 4 10 км слабый ливневой дождь 10 баллов +6.5 +4.3 86 +3 +3 холодно 1011.4 1010.7 12
18 23.04 СВ 2 20 км 10 баллов +6.0 +5.1 94 1013.2 1012.5 +6.5 12
21 23.04 В 2 20 км 10 баллов +6.7 +5.6 93 +4 +4 прохладно 1014.0 1013.3
00 24.04 З 2 10 км слабый ливневой дождь 10 баллов +7.1 +6.0 93 +5 +5 по сезону 1012.7 1012.0
03 24.04 СЗ 6 10 км слабый ливневой дождь 10 баллов +6.1 +4.3 88 +1 +1 холодно 1015.4 1014.7 +4.9 8
06 24.04 СВ 1 20 км 9 баллов +7.4 +5.4 87 +6 +7 прохладно 1016.7 1016.0 +5.7 6
09 24.04 З 7 20 км 4 балла +9.0 +7.0 87 +5 +8 холодно 1019.4 1018.7
12 24.04 СЗ 6 20 км 7 баллов +8.6 +5.7 82 +5 +6 холодно 1020.7 1020.0
15 24.04 З 6 20 км 2 балла +8.7 +4.3 74 +5 +6 холодно 1022.0 1021.3 0.0
18 24.04 З 5 20 км ясно +8.3 +4.1 75 +5 +5 прохладно 1023.4 1022.7 +9.0
21 24.04 З 5 20 км ясно +8.0 +4.9 81 +4 +4 прохладно 1024.7 1024.0
00 25.04 В 4 20 км ясно +5.0 +3.3 89 +1 +1 холодно 1026.1 1025.3
03 25.04 В 4 20 км 2 балла +3.1 +1.6 90 -2 -2 очень
холодно
1027.5 1026.7 +3.0
06 25.04 З 3 20 км ясно +9.5 +6.0 79 +7 +13 по сезону 1028.7 1028.0 +3.0
09 25.04 ЮЗ 4 20 км 2 балла +12.2 +3.4 55 +10 +19 по сезону 1030.0 1029.3
12 25.04 Ю 5 20 км 2 балла +13.3 +2.8 49 +12 +17 по сезону 1028.7 1028.0
15 25.04 Ю 6 20 км 1 балл +12.2 +2.1 50 +10 +11 по сезону 1027.4 1026.7
18 25.04 Ю 4 20 км ясно +9.3 +0.2 53 +7 +7 по сезону 1027.4 1026.7 +13.3
21 25.04 В 2 20 км ясно +7.0 -0.0 61 +5 +5 прохладно 1026.0 1025.3
00 26.04 В 2 20 км ясно +4.4 -0.8 69 +2 +2 холодно 1026.1 1025.3
03 26.04 В 1 20 км ясно +2.5 -1.7 74 +1 +1 холодно 1026.1 1025.3 +2.5
06 26.04 СЗ 1 20 км ясно +9.3 +2.2 61 +9 +17 по сезону 1026.0 1025.3 +2.5
09 26.04 СЗ 4 20 км ясно +10.6 +6.4 75 +8 +19 опасность
простуды
1026.0 1025.3
15 26.04 С 2 20 км ясно +14.8 +5.8 55 +15 +17 тепло 1023.4 1022.7
18 26.04 штиль 0 20 км ясно +11.0 +4.5 64 +11 +11 по сезону 1023.4 1022.7 +16.8
21 26.04 В 2 20 км ясно +6.3 +1.2 70 +4 +4 прохладно 1023.4 1022.7
00 27.04 В 1 20 км ясно +3.5 -0.5 75 +2 +2 холодно 1023.5 1022.7
03 27.04 В 2 50 км ясно +2.3 -0.6 81 -1 -1 очень
холодно
1023.5 1022.7 +2.3
06 27.04 В 2 20 км ясно +9.3 +2.8 64 +8 +15 по сезону 1023.4 1022.7 +1.9
09 27.04 З 3 20 км ясно +13.4 +7.0 65 +12 +26 опасность
простуды
1022.0 1021.3
12 27.04 З 4 20 км ясно +14.7 +7.7 63 +14 +22 по сезону 1022.0 1021.3
15 27.04 З 2 20 км 1 балл +15.8 +8.0 60 +16 +18 тепло 1020.7 1020.0
18 27.04 В 2 20 км 2 балла +11.8 +8.1 78 +11 +11 по сезону 1022.0 1021.3 +16.4
21 27.04 В 1 20 км 2 балла +9.4 +5.8 78 +9 +9 по сезону 1020.7 1020.0
00 28.04 В 2 20 км 2 балла +7.0 +5.1 88 +5 +5 прохладно 1020.7 1020.0
03 28.04 В 3 20 км ясно +6.0 +2.8 80 +3 +3 холодно 1020.7 1020.0 +5.4
06 28.04 В 2 20 км ясно +12.2 +6.7 69 +11 +18 по сезону 1020.7 1020.0 +5.4
09 28.04 З 2 20 км ясно +14.0 +8.4 69 +14 +30 опасность
простуды
1020.7 1020.0
12 28.04 ЮЗ 4 20 км ясно +19.4 +10.4 56 +20 +29 тепло 1019.4 1018.7
15 28.04 З 2 20 км ясно +17.7 +10.3 62 +18 +20 тепло 1019.4 1018.7
18 28.04 штиль 0 20 км ясно +14.0 +8.4 69 +14 +14 тепло 1019.4 1018.7 +20.3
21 28.04 СВ 1 20 км ясно +10.2 +6.3 77 +10 +10 по сезону 1018.0 1017.3
00 29.04 В 1 20 км ясно +8.9 +5.6 80 +8 +8 по сезону 1018.0 1017.3
03 29.04 В 2 20 км ясно +7.4 +4.9 84 +5 +5 прохладно 1018.0 1017.3 +7.1
06 29.04 СВ 2 20 км ясно +13.6 +8.9 73 +13 +20 тепло 1018.0 1017.3 +7.1
09 29.04 СЗ 3 20 км ясно +15.0 +11.0 77 +14 +28 опасность
простуды
1016.7 1016.0
12 29.04 С 3 20 км ясно +18.5 +10.6 60 +19 +30 тепло 1016.7 1016.0
15 29.04 З 2 20 км ясно +19.0 +12.0 64 +20 +23 тепло 1015.4 1014.7

 

Местоположение метеостанции Севастополь (город Севастополь, Россия): широта 44.62 долгота 33.53 высота над уровнем моря 6 м.

В архиве по умолчанию представлена погода в Севастополе за последнюю неделю. Архивные данные за месяц целиком и за предыдущие месяцы, начиная с января 2011 года, Вы можете получить, выбрав интересующий диапазон дат из раскрывающегося списка и нажав кнопку "Ввод!".

Внимание! Время в таблицах - всемирное. Для получения местного времени необходимо прибавить поправку, которая в Севастополе равна 3 ч.

Смотрите также архив погоды в соседних городах и на ближайших метеорологических станциях:

Погода в Херсонесском Маяке (город Севастополь, Россия) (13 км)
Погода в Ай-Петри (Крым, Россия) (47 км)
Погода в Ялте (Крым, Россия) (53 км)
Погода в Симферополе (Крым, Россия) (57 км)
Погода в Никитском саду (Крым, Россия) (58 км)
Погода в Евпатории (Крым, Россия) (64 км)
Погода в Алуште (Крым, Россия) (69 км)
Погода в Белогорске (Крым, Россия) (97 км)
Погода в Клепинино (Крым, Россия) (113 км)
Погода в Черноморском (Крым, Россия) (119 км)

Пояснения к столбцам:

Ветер - указаны скорость ветра в м/с - средняя за 10 мин, порывы в срок и между сроками (в фигурных скобках) и направление, откуда дует ветер: С - северный, СВ - северо-восточный, В - восточный, ЮВ - юго-восточный, Ю - южный, ЮЗ - юго-западный, З - западный, СЗ - северо-западный.
Видимость - горизонтальная дальность видимости в метрах или километрах. При видимости от 1 до 10 км при отсутствии осадков обычно наблюдается дымка, при ухудшении видимости до 1 км и менее - туман. В сухую погоду видимость может ухудшаться дымом, пылью или мглою.
Явления - указаны атмосферные явления, наблюдавшиеся в срок или в последний час перед сроком; фигурными скобками обозначены явления, наблюдавшиеся между сроками (за 1-3 часа до срока); квадратными скобками обозначены град или гололедные отложения с указанием их диаметра в мм.
Облачность - указаны через наклонную черту общая и нижняя облачность в баллах и высота нижней границы облаков в метрах; квадратными скобками обозначены формы облаков: Ci - перистые, Cs - перисто-слоистые, Cc - перисто-кучевые, Ac - высококучевые, As - высокослоистые, Sc - слоисто-кучевые, Ns - слоисто-дождевые, Cu - кучевые, Cb - кучево-дождевые. Подробнее классификацию облаков см. в Атласе облаков (PDF).
T - Температура воздуха - температура, измеренная на высоте 2 м над землей.
Td - Температура точки росы - температура, при понижении до которой содержащийся в воздухе водяной пар достигнет насыщения.
f - Относительная влажность воздуха - влажноcть воздуха, измеренная на высоте 2 м над землей.
Te - Эффективная температура - температура, которую ощущает одетый по сезону человек в тени. Характеристика душности погоды. При расчете учитывается влияние влажности воздуха и скорости ветра на теплоощущения человека.
Tes - Эффективная температура на солнце - температура, которую ощущает человек, с поправкой на солнечный нагрев. Характеристика знойности погоды. Зависит от высоты солнца над горизонтом, облачности и скорости ветра. Ночью, в пасмурную погоду, а также при ветре 12 м/с и более поправка равна нулю.
P - Атмосферное давление - приведенное к уровню моря атмосферное давление.
Po - Атмосферное давление - измеренное на уровне метеостанции атмосферное давление.
Tmin - Минимальная температура - минимум температуры воздуха на высоте 2 м над землей.
Tmax - Максимальная температура - максимум температуры воздуха на высоте 2 м над землей.
R - Количество осадков - Количество выпавших осадков за период времени, мм. При наведении курсора мыши на число - период времени, за который выпало указанное количество осадков.
R24 - Количество осадков - Количество выпавших осадков за 24 часа, мм.
S - Снежный покров - Высота снежного покрова, см. При наведении курсора мыши на число - состояние снежного покрова и степень покрытия местности в баллах.